Regional Weather Roundup
Issued by NWS

Home | Current Version | Previous Version | Text Only | Print | Product List | Glossary On
Versions: 1 2 3 4 5 6 7 8 9 10 11 12 13 14 15 16 17 18 19 20 21 22 23 24 25 26 27
000
ASUS44 KJAN 251110
RWRMS

MISSISSIPPI HOURLY WEATHER ROUNDUP
NATIONAL WEATHER SERVICE JACKSON MS
600 AM CDT WED APR 25 2018

NOTE: "FAIR: INDICATES FEW OR NO CLOUDS BELOW 12,000 FEET WITH NO
SIGNIFICANT WEATHER AND/OR OBSTRUCTIONS TO VISIBILITY.

MSZ001>002-007>008-010>013-018>021-025>028-034>036-251200-
NORTHWEST MISSISSIPPI

CITY           SKY/WX    TMP DP  RH WIND       PRES   REMARKS
BATESVILLE       N/A    N/A N/A N/A MISG        N/A
CLARKSDALE     MOCLDY    54  54 100 CALM      30.03S FOG
CLEVELAND      FAIR      53  53 100 CALM      30.03S
GREENWOOD      FAIR      51  49  92 CALM      30.04S
GREENVILLE     FAIR      52  50  93 CALM      30.04R FOG
OXFORD         MOCLDY    46  46 100 CALM      30.04S FOG
TUNICA         FOG       50  50 100 CALM      30.03S VSB 1/2
WINONA         FAIR      48  48 100 CALM      30.03S
$$

MSZ003>006-009-014>017-022>024-029>033-037>039-251200-
NORTHEAST MISSISSIPPI

CITY           SKY/WX    TMP DP  RH WIND       PRES   REMARKS
ABERDEEN       FOG       50  50 100 CALM      30.03R VSB 3/4
COLUMBUS AFB   FAIR      53  53 100 CALM      30.01R
CORINTH        FOG       50  50 100 CALM      30.01S VSB 1/4
GOLDN TRIANGLE FAIR      53  52  96 NW5       30.02R
TUPELO         FAIR      53  50  89 CALM      30.01R
$$

MSZ040-058-251200-
CENTRAL MISSISSIPPI

CITY           SKY/WX    TMP DP  RH WIND       PRES   REMARKS
JACKSON INTL   FAIR      50  50 100 CALM      30.03S
JACKSON HAWKNS FAIR      52  52 100 CALM      30.05S
MADISON        FAIR      50  50 100 CALM      30.04R
MERIDIAN KEY   FAIR      50  48  93 S5        30.03R
MERIDIAN NAS   FAIR      52  51  97 W3        30.03R
RAYMOND        FOG       48  48 100 CALM      30.04F VSB 1/2
VICKSBURG VKS  MOSUNNY   52  52 100 CALM      30.07R
$$

MSZ059>079-251200-
SOUTH MISSISSIPPI

CITY           SKY/WX    TMP DP  RH WIND       PRES   REMARKS
COLUMBIA       FAIR      48  46  93 CALM      30.09R FOG
HATTIESBURG    FAIR      50  49  96 CALM      30.05R
LAUREL         FAIR      50  50 100 N3        30.04S
MCCOMB         FAIR      53  50  89 CALM      30.05R
NATCHEZ        FAIR      52  51  97 CALM      30.07R
PINE BELT      FAIR      53  52  96 W3        30.05R
$$

MSZ080>082-251200-
COASTAL MISSISSIPPI

CITY           SKY/WX    TMP DP  RH WIND       PRES   REMARKS
BILOXI         FAIR      58  55  89 CALM      30.03R
PASCAGOULA     FAIR      51  49  92 CALM      30.03R FOG
GULFPORT       FAIR      55  53  93 NW5       30.04R
$$

LAZ007>009-015>016-023>026-251200-
NORTHEAST LOUISIANA

CITY           SKY/WX    TMP DP  RH WIND       PRES   REMARKS
BASTROP        FAIR      53  52  98 CALM      30.06S FOG
TALLULAH/VBURG FAIR      54  54 100 CALM      30.06R FOG
VIDALIA        FAIR      55  54  99 CALM      30.06R
$$




USA.gov is the U.S. government's official web portal to all federal, state and local government web resources and services.